This is the latest recevied weather packets stored in our database for station/object IT9FBN-3. If no packets are shown the sender has not sent any weather packets the latest 1 day(s).
| Time | Temp. | Humidity | Pressure | Rain* | Wind** | Luminosity | Snow |
|---|---|---|---|---|---|---|---|
| 1778056503 | 20° C | 44% | 1015 hPa | 0 mm | - | - | - |
| 1778055602 | 20° C | 43% | 1015.2 hPa | 0 mm | - | - | - |
| 1778054702 | 19.44° C | 42% | 1015.4 hPa | 0 mm | - | - | - |
| 1778054102 | 19.44° C | 41% | 1015.6 hPa | 0 mm | - | - | - |
| 1778053802 | 20° C | 41% | 1015.6 hPa | 0 mm | - | - | - |
| 1778053502 | 20° C | 45% | 1015.5 hPa | 0 mm | - | - | - |
| 1778052302 | 19.44° C | 48% | 1015.8 hPa | 0 mm | - | - | - |
| 1778051702 | 18.89° C | 49% | 1015.7 hPa | 0 mm | - | - | - |
| 1778050802 | 18.33° C | 52% | 1015.9 hPa | 0 mm | - | - | - |
| 1778050502 | 18.33° C | 52% | 1015.9 hPa | 0 mm | - | - | - |
| 1778050202 | 18.33° C | 53% | 1015.8 hPa | 0 mm | - | - | - |
| 1778049602 | 18.33° C | 52% | 1015.7 hPa | 0 mm | - | - | - |
| 1778049302 | 17.78° C | 53% | 1015.8 hPa | 0 mm | - | - | - |
| 1778048702 | 17.78° C | 54% | 1015.6 hPa | 0 mm | - | - | - |
| 1778047802 | 17.78° C | 55% | 1015.7 hPa | 0 mm | - | - | - |
| 1778047502 | 17.78° C | 53% | 1015.7 hPa | 0 mm | - | - | - |
| 1778047202 | 17.78° C | 53% | 1015.7 hPa | 0 mm | - | - | - |
| 1778046902 | 17.22° C | 53% | 1015.7 hPa | 0 mm | - | - | - |
| 1778046602 | 17.22° C | 53% | 1015.7 hPa | 0 mm | - | - | - |
| 1778046002 | 17.22° C | 54% | 1015.6 hPa | 0 mm | - | - | - |
| 1778045702 | 16.67° C | 55% | 1015.6 hPa | 0 mm | - | - | - |
| 1778044502 | 16.67° C | 56% | 1015.4 hPa | 0 mm | - | - | - |
| 1778044202 | 16.67° C | 56% | 1015.3 hPa | 0 mm | - | - | - |
| 1778043302 | 15.56° C | 60% | 1015.3 hPa | 0 mm | - | - | - |
| 1778043002 | 15.56° C | 60% | 1015.4 hPa | 0 mm | - | - | - |
* Rain latest hour (hover to see other rain measurements)
** Current wind speed in m/s (hover to see current wind gust speed)